Location: Branche des Alpilles
(43.6087°N, 4.6976°E)
Time: 09:13:16
(UTC+00:00)

N. Korean satellite - Pass Details

Date: 29 September 2021
Orbit: 450 x 495 km, 97.3° (Epoch: 15 October)

Event Time Altitude Azimuth Distance (km) Brightness Sun altitude
Rises 04:46:33 0° 16° (NNE) 2,541 10.5 -9.9°
Reaches altitude 10° 04:48:38 10° 20° (NNE) 1,665 9.6 -9.5°
Maximum altitude 04:52:11 57° 100° (E) 576 7.3 -8.8°
Drops below altitude 10° 04:55:43 10° 180° (S) 1,673 9.2 -8.2°
Sets 04:57:49 0° 185° (S) 2,555 10.1 -7.8°
